Voltar ao catálogo

COSMOS 911

AtivoMilitarPO
NORAD 10019·PAYLOAD·🇷🇺 Russia

Lançado May 25, 1977 de Plesetsk Cosmodrome

Loading…

Próximas Passagens (próximas 24 horas)

TLE

AtualizadoSource: Space-Track

Época: Sep 14, 2026, 11:23 UTC

1 10019U 77039A   26257.47448383  .00000030  00000-0  14972-4 0  9990
2 10019  82.9439  70.6920 0025950  94.0908 295.2417 13.75431332474134

Acompanhe COSMOS 911 em tempo real com AllMySat

Download on the App Store